Regional Weather Roundup
Issued by NWS Pendleton, OR

Home | Current Version | Previous Version | Text Only | Print | Product List | Glossary On
Versions: 1 2 3 4 5 6 7 8 9 10 11 12 13 14 15 16 17 18 19 20 21 22 23 24 25 26 27 28 29 30 31 32 33 34 35 36 37 38 39 40 41 42 43 44 45 46 47 48 49 50
000
ASUS46 KPDT 070125
RWRPDT
PENDLETON REGIONAL WEATHER ROUNDUP
NATIONAL WEATHER SERVICE PENDLETON OREGON
600 PM PDT FRI MAY 6 2016

NOTE: FAIR INDICATES FEW OR NO CLOUDS BELOW 12,000 FEET WITH NO
SIGNIFICANT WEATHER AND/OR OBSTRUCTIONS TO VISIBILITY.

# INDICATES UNOFFICIAL STATION AND DATA

WAZ520-070210-
EAST SLOPES OF WASHINGTON CASCADES

CITY            SKY/WX      TMP DP  RH  WIND    PRES   REMARKS
#CLE ELUM HS    N/A         77  46  33  SE3     29.92S
#CLE ELUM 2NW   N/A         74  41  30  NE5     N/A
#GLENWOOD       N/A         76  51  42  NE3     29.86F
#MANASTASH CYN  N/A         72  49  44  CALM    29.97F
#NELSON 3SW     N/A         73  49  43  CALM    30.10F
#NILE           N/A         77  49  37  CALM    29.17F
#RONALD 2NW     N/A         74  N/A N/A CALM    29.87S
#TEANAWAY 4NE   N/A         77  50  39  CALM    N/A
#TROUT LAKE 1NE N/A         77  49  37  E10     29.85F
#TROUT LAKE 1E  N/A         77  50  39  CALM    29.89S
$$

WAZ521-070210-
SIMCOE HIGHLANDS

CITY            SKY/WX      TMP DP  RH  WIND    PRES   REMARKS
#BICKLETON HS   N/A         71  40  32  N15G24  N/A
#CENTERVILLE 1SWN/A         76  51  42  NE6     29.83F
#GOLDENDALE 1NE N/A         78  35  21  N8      N/A
#GOODNOE HILLS  N/A         81  48  32  NE20    29.79F
#LYLE 6NE       N/A         79  56  45  CALM    29.84F
$$

WAZ026-070210-
KITTITAS VALLEY

CITY            SKY/WX      TMP DP  RH  WIND    PRES   REMARKS
ELLENSBURG AP   PTCLDY      82  48  31  NW3     29.94F
YTC-OPS AREA    SUNNY       70  44  39  N24G36  29.98F
#ELLENSBURG 3NE N/A         76  51  42  N1      29.93F
#ELLENSBURG     N/A         82  50  33  NE5     N/A
#ELLENSBURG 1E  N/A         77  N/A N/A CALM    N/A
#KITTITAS 4N    N/A         77  49  37  N1      29.99F
#KITTITAS 3S    N/A         76  57  52  CALM    29.87F
#THORP 6N       N/A         74  49  41  N9      29.93S
$$

WAZ027-070210-
YAKIMA VALLEY

CITY            SKY/WX      TMP DP  RH  WIND    PRES   REMARKS
SUNNYSIDE AP    CLOUDY      80  49  34  N9      29.88S
YAKIMA AIRPORT  PTCLDY      85  45  25  N10     29.90F
YAKIMA-VAGABOND SUNNY       81  44  27  N20G25  29.89F
#DONALD 2NE     N/A         86   9   5  N3      28.74F
#GRANDVIEW      N/A         81  48  32  NE2     29.85F
#MABTON         N/A         82  54  38  N10     29.86F
#MOXEE 2E       N/A         80  19  10  N15     29.80F
#NACHES 2SW     N/A         78  50  38  NE2     29.95F
#TERRACE HTS    N/A         85  50  30  NW1     29.83F
#TOPPENISH      N/A         81  51  35  CALM    29.77F
#WEST VALLEY    N/A         80  47  31  N7      29.85F
#W YAKIMA       N/A         80  50  35  NE5     29.87F
#WHITE SWAN 5E  N/A         82  51  34  N8      29.87F
#WILEY CITY 3W  N/A         80  41  25  CALM    29.89F
$$

WAZ028-070210-
LOWER COLUMBIA BASIN...WASHINGTON

CITY            SKY/WX      TMP DP  RH  WIND    PRES   REMARKS
PASCO           PTCLDY      81  54  39  CALM    29.85S
PROSSER AWOS    N/A         81  52  37  N8      29.88F
RICHLAND AWOS   MOCLDY      82  56  41  NE5     29.85S
#BENTON CITY    N/A         80  56  44  E7      29.74S
#CONNELL 5N     N/A         79  51  38  N10     29.84F
#CONNELL 5NW    N/A         76  53  45  E7      29.81S
#ELTOPIA 6NW    N/A         75  59  58  CALM    28.84S
#KAHLOTUS       N/A         77  51  40  E21     29.84S
#KENNEWICK 3S   N/A         79  58  49  CALM    29.83F
#PATERSON       N/A         77  57  50  S1      29.82F
#SAGEMOOR 2W    N/A         77  55  47  CALM    29.69F
#TOUCHET 2S     N/A         78  66  67  CALM    29.80F
#WEST PASCO     N/A         81  59  47  CALM    29.88S
$$

WAZ029-070210-
FOOTHILLS OF THE BLUES...WASHINGTON

CITY            SKY/WX      TMP DP  RH  WIND    PRES   REMARKS
WALLA WALLA AP  PTCLDY      73  57  57  S3      29.87F
#CLYDE 6NW      N/A         78  52  40  NE12    29.82F
#LOWDEN 2SE     N/A         78  61  56  S1      29.81F
#PLEASANT VIEW 1N/A         76  52  43  N6      29.86F
#PRESCOTT       N/A         76  63  64  SW1     29.81F
#SUDBURY        N/A         62  N/A N/A CALM    N/A
#WHITMAN COLLEGEN/A         75  60  60  SW2     29.88F
#WAITSBURG 5S   N/A         72  60  66  SW2     29.92F
#WAITSBURG 8N   N/A         77  26  15  N13     29.71S
#WALLA WALLA U  N/A         76  60  58  CALM    29.83S
#WHITMAN MISSIONN/A         78  62  58  CALM    29.84F
$$

WAZ030-070210-
BLUE MOUNTAINS...WASHINGTON

CITY            SKY/WX      TMP DP  RH  WIND    PRES   REMARKS
#DIXIE 5SE      N/A         63  58  84  NW3     29.87S
$$

ORZ009-041-WAZ024-070210-
COLUMBIA RIVER GORGE

CITY            SKY/WX      TMP DP  RH  WIND    PRES   REMARKS
HOOD RIVER AP   PTCLDY      82  50  33  S3      29.87F
THE DALLES AP   PTCLDY      84  48  29  CALM    29.85F
#ARLINGTON AIRPON/A         77  54  45  E5      29.84F
#CELILO DOT     N/A         83  49  31  W1      N/A
#MARYHILL 2W    N/A         84  51  32  CALM    N/A
#MOSIER 1S      N/A         81  37  21  NE3     29.85F
#MURDOCK        N/A         85  52  32  W2      29.80F
#RUFUS DOT      N/A         85  48  28  E8      N/A

$$

ORZ510-070210-
NORTH CENTRAL OREGON

CITY            SKY/WX      TMP DP  RH  WIND    PRES   REMARKS
#ANTELOPE       N/A         71  51  49  NE15    29.72S
#CHENOWITH 1W   N/A         76  49  39  N5      N/A
#COW CYN RST AREN/A         70  46  42  N13     N/A
#DUFUR 9E       N/A         73  49  43  NE10    29.91F
#GRASS VALLEY   N/A         70  48  46  NW5     N/A
#GRASS VALLEY 1SN/A         73  51  46  N3      29.88F
#KENT DOT       N/A         73  39  29  N16     N/A
#MAUPIN SCHOOL  N/A         78  52  40  N2      29.90F
#MORO SCHOOL    N/A         76  57  52  N2      29.92F
#SHANIKO 5WSW   N/A         67  37  33  N17     N/A
#SHANIKO 4NW    N/A         66  46  48  N23G30  29.98S
#TYGH VALLEY 2NEN/A         78  52  40  N6      29.84F
#WAPANITIA AIRPON/A         75  51  43  NE6     29.88F
#WASCO DOT      N/A         80  46  30  NW8     N/A
#WASCO 5NE      N/A         80  53  39  N9      29.84F
$$

ORZ511-070210-
CENTRAL OREGON

CITY            SKY/WX      TMP DP  RH  WIND    PRES   REMARKS
BEND AIRPORT    CLOUDY      64  46  52  N13     29.95F
MADRAS AIRPORT  CLOUDY      75  50  41  N10     29.95F
PRINEVILLE AP   MOCLDY      68  48  49  N13     29.94F
REDMOND AIRPORT CLOUDY      68  46  45  N14     29.95R
#ASHWOOD SCHOOL N/A         70  49  47  NE5     29.91S
#BEND 1SW       N/A         62  48  60  NE1     N/A
#BEND-AWBREY    N/A         63  48  58  NE6     29.90S
#BEND-KIM LN    N/A         64  49  58  N1      29.95R
#CULVER         N/A         69  49  49  N2      29.83F
#LAKE BILLY CHINN/A         70  N/A N/A N10     30.00R
#POWELL BUTTE   N/A         66  49  54  N5      29.83F
#PRINEVILLE 3N  N/A         67  52  59  N13     29.85F
#WARM SPRINGS   N/A         76  51  42  NW5     29.89F

$$


ORZ509-070210-
EAST SLOPES OF OREGON CASCADES

CITY            SKY/WX      TMP DP  RH  WIND    PRES   REMARKS
SISTERS AWOS    N/A         66  46  48  VRB6    29.95F
#BLUE BOX PASS  N/A         67  N/A N/A CALM    N/A
#CAMP SHERMAN   N/A         68  45  44  CALM    29.93S
#LA PINE DOT    N/A         61  37  41  NW15    N/A
#LA PINE 4NW    N/A         61  47  60  NW5     29.91S
#LAVA BUTTE DOT N/A         59  40  49  NW3     N/A
#SISTERS AIRPOR N/A         66  53  63  N2      30.17S
#SISTERS ODOT   N/A         66  N/A N/A NW2     N/A
#SISTERS 1NW    N/A         67  44  43  N9      N/A
#SISTERS 3N     N/A         65  46  50  N6      29.97S
#SUNRIVER       N/A         61  47  60  N3      29.90S
#TUMALO 3W      N/A         63  46  54  N7      29.79S
#WANOGA BUTTE D N/A         52  43  71  NE9     N/A

$$

ORZ044-070210-
LOWER COLUMBIA BASIN...OREGON

CITY            SKY/WX      TMP DP  RH  WIND    PRES   REMARKS
HERMISTON       PTCLDY      78  56  47  SW5     29.85F
#BOARDMAN SCHOOLN/A         79  58  49  SE3     29.84F
#BOARDMAN 8SW   N/A         79  58  49  E7      29.83S
#ECHO 8SW       N/A         78  57  48  CALM    29.86F
#I-84 EX 198 DOTN/A         77  53  43  NE2     N/A
#UMATILLA SCHOOLN/A         82  64  55  CALM    29.91S
#UMATILLA       N/A         80  56  44  SE1     29.76F
$$

ORZ507-070210-
NORTHERN FOOTHILLS OF THE BLUES

CITY            SKY/WX      TMP DP  RH  WIND    PRES   REMARKS
PENDLETON AIRPT PTCLDY      72  52  49  VRB3    29.88F
#ADAMS 3WNW     N/A         71  58  64  S1      29.84F
#ATHENA         N/A         70  57  63  CALM    29.87F
#CAYUSE         N/A         69  56  63  E1      29.84F
#HELIX SCHOOL   N/A         71  59  66  S1      29.85S
#HELIX 3N       N/A         71  58  64  N7      29.87F
#HOLDMAN 5SE    N/A         73  59  62  CALM    29.87F
#HOLDMAN 6E     N/A         75  58  56  S5      29.65F
#M-F FERNDALE   N/A         77  59  54  CALM    29.85F
#M-F GROVE ELEM N/A         73  56  55  S2      29.85F
#M-FREEWATER 5SEN/A         73  59  62  CALM    29.87F
#PENDLETON DNTN N/A         74  49  41  SW6     29.89F
#PDT AQUATIC CTRN/A         75  53  46  S5      29.93S
#PDT SUNRIDGE   N/A         74  56  53  E2      29.88F
#PENDLETON 7NW  N/A         74  58  57  CALM    32.33S
#PILOT ROCK     N/A         70  52  53  SE5     29.91F
#TUTUILLA       N/A         70  57  63  CALM    29.86F
#UMAPINE 2E     N/A         75  61  62  CALM    29.83S
#WESTON SCHOOL  N/A         67  54  63  NW2     29.79F

$$

ORZ508-070210-
SOUTHERN FOOTHILLS OF THE BLUES

CITY            SKY/WX      TMP DP  RH  WIND    PRES   REMARKS
#AJAX           N/A         73  45  37  N8      27.67F
#CONDON 5W      N/A         67  49  52  N12     29.94S
#FOSSIL SCHOOL  N/A         69  53  57  NE10    29.90F
#HEPPNER EOC    N/A         72  54  53  E1      29.79F
#HEPPNER 4NE    N/A         67  54  63  N6      29.87F
#LEXINGTON 2SE  N/A         76  55  48  CALM    29.87F
#MIKKALO        N/A         76  51  42  N3      30.00F
#OLEX 4N        N/A         77  55  47  NE3     29.86F
#RUGGS 5NE      N/A         69  52  55  NE7     30.14S
#RUGGS 2SW      N/A         68  54  61  NE9     29.88F

$$

ORZ502-503-070210-
BLUE MOUNTAINS

CITY            SKY/WX      TMP DP  RH  WIND    PRES   REMARKS
#BATTLE MTN DOT N/A         57  53  86  NW3     N/A
#HARDMAN 10S    N/A         59  51  75  N5      30.01F
#HEPPNER 15SE   N/A         60  52  75  E1      29.89S
#LADD CYN SMT   N/A         63  47  56  W13     N/A
#LADD CREEK ODOTN/A         69  50  51  CALM    N/A
#LONG CREEK HS  N/A         58  54  87  CALM    N/A
#N POWDER DOT   N/A         66  52  61  N17     N/A
#PIKES PEAK     N/A         63  57  81  N5      27.99S
#TOLLGATE       N/A         55  53  93  NE6     29.87R
#TROY SCHOOL    N/A         77  55  47  CALM    29.65F
#UKIAH          N/A         61  52  72  N9      29.77F
#WESTON 4E      N/A         65  57  75  CALM    29.84F
$$

ORZ505-070210-
JOHN DAY BASIN

CITY            SKY/WX      TMP DP  RH  WIND    PRES   REMARKS
JOHN DAY        CLOUDY      63  50  62  N12     29.92F
#DAYVILLE SCHOOLN/A         68  47  47  N5      29.88R
#MITCHELL       N/A         66  56  70  CALM    30.10S
#MITCHELL 8NW   N/A         63  51  65  N1      30.09F
#MONUMENT HS    N/A         70  46  42  NE8     29.82S
#MT. VERNON 5SE N/A         60  49  67  W1      29.89S
#SPRAY SCHOOL   N/A         71  N/A N/A CALM    N/A
#WINLOCK        N/A         65  51  60  W7      29.92S
$$

ORZ506-070210-
OCHOCO AND JOHN DAY HIGHLANDS

CITY            SKY/WX      TMP DP  RH  WIND    PRES   REMARKS
#BUCK CREEK DOT N/A         64  49  58  N18     N/A
#HORSE RIDGE DO N/A         61  45  56  NW14    N/A
#KEYES SMT DOT  N/A         59  48  67  N17     N/A
#PAULINA SCHOOL N/A         66  47  50  N6      29.17S
#PINE MTN OBS   N/A         49  45  86  N14G31  N/A    WCI 44
#PRAIRIE CITY   N/A         64  50  60  NW2     29.87F
#SENECA         N/A         59  N/A N/A N7      N/A
#SENECA 9NW     N/A         56  47  72  E1      29.79F
$$

ORZ049-070210-
GRANDE RONDE VALLEY

CITY            SKY/WX      TMP DP  RH  WIND    PRES   REMARKS
LA GRANDE       CLOUDY      66  50  56  NW15    29.88F
#COVE           N/A         72  57  59  N7      29.91S
#COVE SCHOOL    N/A         74  51  44  NE1     29.90R
#COVE 6NW       N/A         68  55  63  N12     29.75F
#ELGIN 3N       N/A         72  49  44  N9      29.87F
#ELGIN 1E       N/A         73  56  55  CALM    N/A
#IMBLER SCHOOL  N/A         69  54  59  N7      29.86S
#ISLAND CITY 4N N/A         82  54  38  CALM    29.89R
#LADD CYN DOT   N/A         69  53  57  NW12    N/A
#LA GRANDE ELEM N/A         64  55  73  W14     29.92F
#UNION 1S       N/A         69  55  61  N6      29.70F
$$

ORZ050-070210-
WALLOWA COUNTY

CITY            SKY/WX      TMP DP  RH  WIND    PRES   REMARKS
JOSEPH AIRPORT  CLOUDY      63  50  62  CALM    29.96F
#ENTERPRISE AP  N/A         49  29  46  CALM    29.88F
#ENTERPRISE HS  N/A         64  53  67  CALM    29.95F
#IMNAHA SCHOOL  N/A         74  58  57  CALM    29.84F
#IMNAHA 10S     N/A         69  56  63  CALM    29.88F
#JOSEPH 3N      N/A         62  49  62  W2      29.97F
#JOSEPH 3W      N/A         59  53  80  CALM    N/A
#LOSTINE        N/A         66  53  63  SW1     29.64F
#MT HOWARD 8000 N/A         43  42  96  N9      30.10S
#PROMISE 1S     N/A         64  52  65  W8      29.94R
#WALLOWA SCHOOL N/A         69  53  57  CALM    29.88F



$$



USA.gov is the U.S. government's official web portal to all federal, state and local government web resources and services.